Location: Bassano
(45.7667°N, 11.7333°E)
Time: 18:44:27
(UTC+00:00)

ADEOS II - Pass Details

Date: 07 June 2020
Orbit: 800 x 800 km, 98.5° (Epoch: 11 July)

Event Time Altitude Azimuth Distance (km) Brightness Sun altitude
Rises 01:03:00 0° 20° (NNE) 3,320 7.0 -17.0°
Reaches altitude 10° 01:05:30 10° 28° (NNE) 2,385 5.9 -16.8°
Maximum altitude 01:10:26 40° 98° (E) 1,175 3.1 -16.4°
Enters shadow 01:14:39 14° 163° (SSE) 2,125 3.9 -16.0°
